Location: Bergen
(60.3910°N, 5.3250°E)
Time: 06:50:08
(UTC+02:00)

ISS - Pass Details

Date: 24 March 2019
Orbit: 408 x 410 km, 51.6° (Epoch: 20 April)

Event Time Altitude Azimuth Distance (km) Brightness Sun altitude
Rises 21:03:57 0° 223° (SW) 2,334 0.2 -14.9°
Reaches altitude 10° 21:06:42 10° 198° (SSW) 1,474 -1.1 -15.2°
Enters shadow 21:07:21 12° 188° (S) 1,342 -1.4 -15.3°
